Location: Teplice
(50.6330°N, 13.8330°E)
Time: 00:31:40
(UTC+01:00)

ISS - Visible Passes

Search period start: 19 December 2018 00:00
Search period end: 29 December 2018 00:00
Orbit: 401 x 408 km, 51.6° (Epoch: 19 December)

Date Brightness Start Highest point End Pass type
(mag) Time Alt. Az. Time Alt. Az. Time Alt. Az.
22 Dec -0.3 07:06:14 10° SSE 07:07:39 12° SE 07:09:04 10° ESE visible
24 Dec -1.2 06:56:43 10° SSW 06:59:21 22° SE 07:02:00 10° E visible
25 Dec -0.8 06:05:26 10° S 06:07:20 15° SE 06:09:14 10° ESE visible
26 Dec -2.4 06:48:01 10° SW 06:51:07 39° SSE 06:54:14 10° E visible
27 Dec -1.8 05:56:44 13° SSW 05:58:59 26° SSE 06:01:48 10° E visible
28 Dec -1.1 05:07:12 17° SE 05:07:12 17° SE 05:09:08 10° E visible
28 Dec -3.5 06:39:54 11° WSW 06:42:57 65° SSE 06:46:12 10° ENE visible
